Orbital Elements at Epoch 2459200.5 (2020-Dec-17.0) TDB
Reference: JPL 25 (heliocentric ecliptic J2000)
Element | Value | Uncertainty (1-sigma) | Units |
e | .150213275528915 | 3.3558e-08 | |
a | 2.976183458221438 | 1.5655e-08 | au |
q | 2.529121192387023 | 1.068e-07 | au |
i | 8.233914303551874 | 4.5691e-06 | deg |
node | 212.4636809000934 | 2.3663e-05 | deg |
peri | 90.94023403257404 | 2.9305e-05 | deg |
M | 351.9289329072449 | 1.5825e-05 | deg |
tp | 2459242.545200845209 (2021-Jan-28.04520085) | 8.2454e-05 | TDB |
period | 1875.374362562552 5.13 | 1.4797e-05 4.051e-08 | d yr |
n | .1919616729259795 | 1.5146e-09 | deg/d |
Q | 3.423245724055854 | 1.8007e-08 | au |
|
| | Orbit Determination Parameters
Additional Information
|